CAPE
994 989 1128 1188 1238 1726 2469 2310 2357 2567 2688 3108 3177 3113 2997 2991 2930 3044 3025 3011 3043 2970 2882 2756 2691 2638 2612 2464 2578 2522 2493 2448 2725 2630 2595 2744 2808 3004 2870 2876 2782 2461 2456 2499 2559 2466 2534 2561 2544 2478 2410 2363 2271 2176 2223 2132 2467 2571 2755 2748 2711 2651 2251 2094 1728 2237 2212 2252 2275 2360 2415 2435 2372 2227 2466 2466 2470 2748 2788 2940 2740 2676 2459 2631 2593
1029 1058 1110 1352 2088 2358 2540 2391 2392 2596 3007 3164 3059 2935 2875 2833 2918 2991 2991 2934 2680 2691 2727 2729 2625 2614 2648 2610 2559 2667 2645 2571 2600 2688 2708 2829 2824 2910 2623 2594 2452 2182 2361 2401 2361 2317 2459 2602 2592 2367 2337 2308 2227 2238 2021 2145 2522 2745 2888 2888 2663 2333 2075 2109 1986 1960 2044 2118 2209 2086 2094 2127 2407 2393 2340 2517 2601 2544 2687 3128 3008 2476 2557 2728 2606
1016 1070 1246 1784 1857 1822 2660 2515 2313 2592 3077 3031 2822 2699 2646 2868 2990 3041 2935 2734 2724 2784 2627 2610 2464 2572 2557 2521 2270 2407 2767 2824 2706 2699 2684 2653 2753 2726 2773 2637 2468 2421 2492 2106 1975 2342 2434 2465 2406 2339 2289 2220 2156 2115 2406 2436 2502 2708 2670 2633 2453 2400 2375 2261 2170 2084 1992 1963 1935 1845 1891 2397 2645 2698 2266 2600 2832 2421 2642 2824 2831 2546 2189 2752 2571
950 1125 1301 1502 1768 1727 1935 2470 2510 2722 3065 2932 2642 2610 2849 3005 3049 2928 2856 2802 2712 2500 2619 2525 2488 2616 2170 2251 2470 2577 2712 2768 2731 2625 2643 2590 2640 2545 2612 2606 2437 2207 2330 2434 2501 2510 2507 2390 2329 2118 2207 2226 2176 2060 2258 2079 2661 2376 2374 2601 2605 2490 2448 2327 2280 2307 2231 2106 2215 2418 2666 2238 2215 2600 2628 2573 2509 2559 2866 2505 2378 2560 2632 2577 2422
1156 1140 1454 1517 1634 2050 2100 2398 2564 2787 2885 2659 2694 2838 2994 3067 2911 3044 2805 2681 2721 2620 2470 2546 2579 2467 2549 2589 2405 2438 2398 2647 2516 2499 2202 2555 2648 2384 2386 2494 2517 2293 2467 2561 2534 2557 2550 2437 2386 2348 2357 2334 2192 2169 2486 2317 2112 2133 2180 2215 2384 2435 2413 2207 2158 2104 2105 2188 2191 1946 2061 2137 2090 2093 2430 2247 2486 2364 2363 2308 2246 2169 2129 2355 2210
1222 1171 1421 1540 1434 1852 2388 2549 2506 2798 2798 2716 2932 2913 2945 3040 3016 3021 2967 2785 2764 2724 2655 2442 2539 2507 2356 2077 2446 2334 2307 2500 2472 2337 2361 2576 2623 2445 2234 2515 2319 2575 2333 2481 2500 2485 2371 2337 2414 2271 2251 2218 2100 1674 2304 2238 2442 2345 2617 2588 2498 2277 2301 2322 2164 2126 2158 2228 2321 1480 1827 2036 1967 2105 2356 2135 2150 2301 2250 2109 2288 2205 2069 1953 1984
1449 1236 1404 1658 1696 2117 2473 2731 2496 2797 2766 2877 2997 3049 3106 3031 2992 2909 2800 2832 2737 2642 2564 2522 2521 2452 2367 2476 2344 2222 2305 2295 2046 1967 1996 2324 2406 2398 2522 2388 2408 2192 2272 2206 2449 2062 2384 2014 2401 2439 2269 2258 2053 1733 1552 1942 2070 2253 2646 2524 2305 2519 2200 2104 2046 2163 2218 1701 1523 1535 1662 1746 1817 1870 2211 2381 2290 2288 2324 1991 2083 2043 2015 2046 2175
1685 1289 1549 1730 1743 1904 2492 2787 2626 2804 2876 2978 3096 3074 3000 2922 2809 2624 2759 2737 2641 2603 2568 2490 2518 2461 2253 2307 2112 2117 2062 2256 2065 2117 2208 2196 2189 2457 2334 2163 2124 2238 2440 2306 2507 2428 2287 1879 2312 2431 2077 2099 2046 2202 1828 1951 1779 2400 2600 2526 2154 2402 2181 2190 2063 2073 2019 1582 1653 1700 1712 1647 1746 1822 2253 2331 2196 2166 2081 1914 1813 2075 1938 1993 1862
1693 1571 1348 1529 1582 1843 2755 2775 2767 2872 2948 2974 3029 2940 2849 2751 2617 2799 2786 2704 2646 2508 2469 2450 2406 2362 2300 2264 2414 2303 2337 2180 2170 2233 2050 1755 2146 2091 2317 2252 2295 2246 2244 2516 2507 2276 2292 2158 2518 2516 2186 2219 2143 2189 2101 1778 2006 1866 2112 2204 2157 2261 2246 2179 2287 2541 1894 1645 1672 1704 1742 1779 1728 1765 2167 2112 2168 2203 2137 2159 2170 2081 2017 1965 1857
1694 1698 1689 1644 1728 2000 2616 2635 2852 2887 2946 3010 2931 2799 2634 2730 2797 2816 2675 2561 2443 2361 2333 2308 2314 2257 2198 2344 2290 2296 2383 2037 2131 1880 1834 1784 1762 2068 2104 2362 2360 2338 2505 2351 2357 2692 2177 2512 2664 2594 2259 2116 2268 2268 2346 2456 1902 1776 2275 2418 2103 2224 2007 2206 2413 2438 1581 1609 1664 1737 2342 2544 1898 1896 2096 1844 2167 2124 1923 2372 2094 2216 2038 1790 2294
1749 1770 1816 1856 2074 2438 2669 2712 2928 2739 2853 2853 2725 2680 2696 2773 2762 2615 2479 2373 2347 2344 2332 2397 2364 2277 2269 2300 2241 2248 2342 2322 2193 2290 2264 2228 2344 2173 2068 2210 2252 2252 2303 2236 2515 2281 2454 2437 2648 2674 2569 2216 2361 2405 2497 2453 2102 2146 2080 2474 2680 2391 1852 2382 2353 1784 1901 1958 2071 2167 2366 2536 2078 2082 2392 2322 2316 1921 2003 2135 2282 1908 2016 1697 1733
1791 1727 1782 1954 2283 2338 2727 2763 2822 2888 2924 2754 2721 2788 2852 2768 2606 2510 2448 2520 2362 2309 2400 2289 2330 2236 2116 2193 2142 2336 2400 2247 2199 2212 2173 2344 2491 2449 2065 2212 2557 2332 2478 2460 2166 2191 2247 2148 2367 2567 2561 2329 2407 2463 2489 1833 2097 2190 2354 2325 2365 1984 2209 2504 1926 1923 2058 2108 2116 2076 1954 1961 1889 1965 2557 2422 2324 1862 1925 1992 2192 1991 1736 1988 1701
1770 1754 1943 2379 2476 2757 2611 2910 2840 2965 2798 2729 2862 2990 2792 2599 2496 2509 2466 2323 2315 2259 2202 2194 2216 2202 2213 2349 2428 2386 2130 2130 2127 2040 2287 2443 2546 2577 2670 2548 2477 2306 2417 2359 2102 2344 2341 2325 2254 2219 2204 2523 2518 2527 2574 2507 2041 2390 2459 1985 2200 2134 2241 2494 1918 1958 1999 2016 2066 2071 2100 2041 2068 1778 2144 2546 2473 2361 2265 2287 2080 2305 2312 2217 2166
1799 1864 2165 2306 2373 2647 2614 2851 2936 2881 2692 2875 2998 2804 2600 2556 2574 2437 2311 2251 2259 2227 2308 2256 2272 2398 2470 2457 2424 2318 2068 2156 2389 2215 2273 2108 2461 2586 2620 2624 2610 2590 2467 2445 2363 2438 2387 2220 2166 2214 2684 2628 2421 2317 2277 2308 2148 2178 1931 2272 2393 2292 2466 2646 2395 1916 2038 2083 2305 2131 2235 2464 2324 2330 2164 2140 2221 2379 2405 2446 2388 2336 2335 2331 2180
1866 2058 2198 2232 2511 2400 2559 2830 2904 2894 2939 2974 3028 2850 2487 2540 2430 2292 2277 2294 2280 2347 2333 2399 2453 2412 2491 2511 2436 2287 2023 2134 2218 2298 2326 2370 2404 2414 2494 2469 2604 2575 2535 2624 2636 2650 2584 2679 2447 2478 2418 2476 2409 2281 2199 2285 2254 2732 2554 2214 2365 2307 2734 2185 1964 1986 2202 2492 2433 2203 2162 2247 2489 2383 2340 2258 2231 2356 2346 2462 2464 2349 2278 2162 2114
2047 2162 2145 2218 2233 2392 2407 2811 2881 2908 2831 3064 3049 2982 2734 2456 2291 2255 2274 2304 2343 2376 2428 2503 2490 2498 2431 2275 2296 2338 2405 2419 2447 2477 2447 2505 2514 2529 2499 2520 2499 2571 2684 2709 2719 2697 2683 2542 2526 2470 2641 2557 2567 2537 2554 2323 2491 2728 2707 2272 2296 2482 2667 2340 1916 2066 2118 2128 2325 2564 2244 2457 2703 2575 2350 2230 2215 2211 2171 2236 2359 2320 2096 2199 2119
2098 2126 2154 2199 2145 2205 2348 2611 2812 2754 2905 3043 2993 2894 2722 2666 2459 2260 2255 2347 2495 2504 2531 2535 2531 2515 2447 2425 2460 2513 2546 2598 2616 2650 2681 2703 2717 2682 2613 2696 2723 2766 2852 2816 2822 2790 2719 2808 2466 2366 2460 2866 2808 2670 2432 2325 2560 2627 2615 2478 2334 2591 2583 2294 1811 1893 2076 2428 2441 2268 2260 2256 2752 2603 2429 2300 2255 2274 2350 2224 2156 2156 2096 2118 2218
2009 2093 2124 2142 2098 2172 2348 2504 2563 2459 2773 3064 3025 3002 2981 2681 2610 2435 2488 2508 2508 2568 2533 2613 2528 2548 2569 2519 2451 2501 2530 2565 2676 2732 2798 2797 2862 2815 2852 2852 2824 2832 2918 2938 2928 2866 2851 2924 2896 2890 2792 2953 2695 2657 2695 2701 2240 2343 2508 2558 2280 2316 2643 2271 1657 1914 2248 2697 2168 2521 2257 2292 2778 2412 2389 2328 2309 2248 2275 2301 2202 2163 2111 2076 2148
1940 2062 2076 2086 2119 2238 2303 2497 2576 2590 2695 2763 2778 3025 3007 2985 2704 2754 2679 2618 2652 2747 2818 2821 2599 2555 2586 2607 2480 2568 2632 2640 2594 2678 2781 2948 2879 2797 2844 2864 2864 2869 2882 2894 2994 2855 2822 2857 2812 2868 2971 2773 2601 2541 2700 2951 2560 2316 2070 2073 1745 2190 2542 2256 1831 2242 2500 2068 2134 2124 2217 2628 2499 2383 2322 2289 2337 2314 2227 2255 2327 2334 2281 2156 2291
1928 1987 2027 2063 2170 2266 2290 2433 2563 2605 2638 2738 2792 2794 2970 3093 2992 2780 2835 2729 2836 2889 2994 2980 2736 2641 2697 2654 2606 2748 2758 2718 2827 2861 2903 2990 2992 2852 2869 2849 2877 2888 2876 2941 3174 3219 3182 2992 2896 2877 2871 2782 2788 2389 2540 2468 2446 2610 2311 2040 2069 2248 2192 1882 2151 2050 1872 2086 2262 2198 2531 2570 2419 2323 2381 2343 2368 2352 2304 2294 2270 2288 2306 2271 2322
1843 1930 1956 2053 2204 2276 2342 2442 2479 2559 2688 2762 2761 2781 2954 3152 3074 3088 2852 2947 2931 3006 2966 2996 2741 2708 2720 2791 2876 2712 2800 2779 2742 2516 2852 3243 3014 2934 3001 2954 2892 2920 3074 3136 3181 3176 3214 3238 3075 2932 2895 2892 2887 2425 2084 2378 2468 2805 2612 2036 2184 1919 1700 1914 1951 2000 2041 2478 2622 2265 2643 2553 2362 2351 2332 2246 2332 2384 2387 2451 2420 2357 2392 2382 2426
1796 1843 1899 2029 2149 2285 2333 2349 2473 2581 2694 2742 2756 2787 2914 3034 2935 2968 3043 2917 3030 3034 2910 2839 2936 2576 2634 2664 2331 2970 2467 2636 2748 3090 3019 3261 3122 3046 2494 2762 2884 3076 2969 3031 3052 3065 3236 3031 3024 3338 3331 3191 3182 2825 2439 2330 2625 2887 2932 2657 2399 1523 1732 1783 1812 1950 2123 2089 2443 2396 2772 2437 2394 2313 2266 2265 2248 2377 2413 2448 2460 2355 2259 2218 2277
1660 1705 1796 1911 2039 2194 2160 2242 2422 2535 2663 2673 2744 2796 2835 2901 2893 2989 3037 3056 3236 3542 2880 3256 2499 2442 2514 2172 2801 2814 2314 2396 2911 2705 2953 3107 3182 3056 2856 2973 3074 2981 2967 3022 3116 3165 3165 3225 3167 3191 3373 3252 2928 2324 2337 2426 2736 2473 2420 3176 1473 1427 1552 1666 1756 1730 1722 2043 2250 2665 2558 2425 2354 2371 2310 2252 2325 2261 2325 2476 2432 2382 2302 2226 2194
1464 1519 1620 1724 1939 1901 1910 2146 2264 2432 2550 2595 2698 2779 2784 2773 2764 2792 2914 2890 3068 2794 2845 2594 2334 2408 2388 2282 2566 2710 2198 2100 3379 2516 2344 3148 3065 3052 2919 2890 3047 3095 3216 3383 2981 3199 3172 3157 3122 2735 3248 3304 2298 2288 2177 2220 1691 2516 2689 2940 2403 1612 1445 1518 1561 1529 1693 2488 2323 2804 2693 2537 2416 2390 2414 2374 2342 2365 2419 2375 2367 2349 2284 2152 2124
1308 1361 1434 1604 1743 1586 1703 1963 2074 2211 2338 2458 2591 2740 2663 2632 2658 2660 2745 2675 2838 2624 2663 2437 2250 2306 2231 2301 2538 2938 2425 2077 3041 2889 2250 2483 2725 2772 2815 2704 2600 2758 3243 2613 3016 3180 3200 2613 2939 3402 2507 2413 2126 2005 1863 1642 2103 2164 2234 2590 2750 1915 1356 1318 1409 1558 1930 2258 2419 2782 2692 2636 2514 2452 2451 2392 2344 2366 2426 2387 2313 2313 2218 2137 2063
1170 1220 1295 1522 1481 1346 1548 1717 1798 2049 2054 2264 2498 2628 2518 2518 2506 2508 2541 2624 2719 2405 2399 2389 2023 2043 2198 2108 2739 2735 2496 2170 2784 2571 2112 1912 2486 2594 2477 2372 2388 2848 3145 2288 2436 2347 2432 2164 2019 1954 2044 2014 1789 1549 1599 1912 1540 1656 1964 2162 2382 2072 1570 1356 1372 1625 1909 2151 2686 2828 2743 2589 2592 2514 2611 2434 2397 2418 2385 2305 2276 2250 2200 2149 2091
1078 1116 1228 1399 1200 1242 1375 1458 1661 1874 1794 2004 2305 2464 2306 2279 2307 2301 2324 2486 2536 2270 2088 2296 2092 1423 2056 2505 2539 2280 2312 2126 2526 2447 1977 1668 2176 2286 2289 2420 2333 2549 2685 2201 2294 2150 2192 2392 2129 2046 2130 1970 1667 1665 1682 1819 1262 1066 1488 1954 2048 2096 1538 1368 1285 1527 1769 2142 2665 2902 2781 2658 2538 2552 2543 2472 2353 2436 2361 2337 2277 2169 2096 2065 2086
997 1042 1208 1268 1148 1154 1274 1281 1538 1775 1577 1784 2021 2147 2050 2012 2007 2224 2190 2193 2260 2278 2013 2080 2103 1916 2004 2420 2400 2008 1785 1918 2204 2543 2112 1690 1798 2076 2332 2475 2402 2195 2447 1952 1905 1796 2088 2145 1887 1687 1909 2026 1777 1735 1682 1852 1758 1266 1170 1546 1888 2106 1246 1264 1214 1220 1639 2230 2598 2794 2807 2692 2514 2452 2438 2442 2346 2332 2390 2412 2271 2104 2033 1937 1963
999 1029 1193 1196 1028 1213 1251 1166 1521 1640 1433 1631 1470 1796 1839 1742 1782 2012 1792 2246 1982 1969 2021 1960 2030 2036 2113 2329 2389 1832 1719 1575 2018 2284 2539 2138 2146 2314 2494 2347 2477 2242 2200 1957 1759 1740 2030 1989 2448 1963 1539 1833 1801 2010 2181 1509 1298 1157 1180 1210 1714 1960 1313 1371 1240 1032 1553 2110 2496 2680 2770 2691 2601 2425 2374 2358 2362 2294 2384 2432 2174 2162 2082 1878 1910
989 1003 1206 1145 1091 1227 1177 1155 1482 1478 1363 1384 1093 1444 1656 1604 1591 1844 1350 2171 1889 1600 1802 1900 1932 1942 2017 2244 2114 1658 1618 1546 1858 1860 2578 2332 2146 2201 2271 2110 2335 2208 2171 1923 1956 2057 2196 2256 2428 1915 1668 2081 1865 1408 2034 1539 1556 740 481 878 1512 1742 1346 1396 1256 1055 1395 2097 2392 2669 2774 2635 2623 2535 2399 2294 2317 2387 2429 2325 2272 2235 2241 1987 1872
964 974 1152 1170 1228 1292 1131 1147 1416 1331 1211 1258 811 1188 1519 1514 1342 1629 1269 1498 1721 1508 1444 1754 1834 1922 1896 2240 2097 1800 1357 1450 1754 1804 2125 2251 2057 1821 2016 2000 1819 2123 2249 2017 2546 2086 2246 2310 2068 1881 1986 1646 1766 2218 2255 2054 1495 1078 922 634 1195 1476 1329 1421 1304 1030 1319 1971 2245 2492 2612 2714 2572 2533 2490 2390 2316 2291 2345 2326 2249 2323 2238 2166 2018
979 962 1106 1141 1247 1292 1131 1173 1333 1186 1210 1108 709 942 1304 1402 1222 1287 1408 1154 1488 1411 1309 1490 1894 1885 1856 2212 2136 1761 2289 1391 1654 1727 1793 1932 1292 1667 1932 1819 1636 1636 2272 2039 2482 2408 2370 2599 2837 2400 2325 2210 1936 1751 2223 2208 1579 1211 663 392 848 1106 1337 1507 1405 1153 1240 1679 2153 2308 2423 2533 2545 2580 2536 2410 2287 2082 2065 2091 2120 2154 2005 2132 2108
935 962 1034 1096 1226 1297 1081 1161 1207 1124 1170 1137 636 568 1102 1197 1204 1038 1213 1291 1221 1289 1333 1471 1742 1785 1895 1992 2245 2382 3019 1705 1428 1599 2178 1408 1388 1658 1793 2008 1566 1742 2091 2073 2245 2739 2945 2828 2636 2834 1745 1385 1215 1411 2300 1778 1088 883 603 60 587 1033 1288 1509 1376 1238 1350 1657 1906 2137 2129 2220 2298 2548 2566 2458 2377 2176 2107 2109 2167 2157 2128 2074 2174
877 910 939 1066 1155 1297 1134 1104 1104 1109 1169 1050 882 393 792 1087 1055 944 914 1266 1213 1299 1306 1528 1703 1726 1764 1964 2179 2607 2634 2178 1510 1578 1785 1494 1652 1620 1578 1944 1595 1786 1835 2246 1887 2298 2400 2499 2470 2264 3354 2444 1269 1706 2013 1458 1286 843 534 120 91 1019 1251 1344 1371 1318 1584 1790 1975 2021 2014 2153 2181 2334 2460 2450 2422 2246 2155 2140 2072 2060 2089 2082 2056
842 914 912 1015 1059 1186 1098 1080 1037 1103 1068 997 992 732 284 970 937 913 1004 1262 1201 1482 1208 1458 1601 1596 1659 1983 1928 2342 2508 2386 1858 1920 1992 1956 2041 1697 1735 1963 1802 1915 1948 2382 1678 1958 1982 2420 2099 1600 2101 1668 1473 2296 1776 1539 1068 1023 865 194 10 916 1107 1131 1213 1457 1657 1818 2074 2138 2127 2140 2084 2212 2217 2296 2330 2470 2334 2098 2174 2141 2144 2115 2071
963 981 939 926 960 1127 1079 1078 1120 1090 967 985 1000 855 539 561 944 1316 1217 1245 1023 1466 1322 1390 1798 1711 1779 1949 1948 2026 2151 2722 2129 2017 2071 2108 2186 1873 2009 2090 2240 2251 2328 2800 2092 1844 2214 2189 2554 1966 1877 2124 2578 1568 1323 1303 1140 1199 1152 79 84 708 896 976 1142 1431 1534 1820 2029 2095 2139 2141 2079 2122 2547 2064 2083 2353 2299 2162 2148 2183 2167 2137 2099
950 1073 1034 903 857 1041 1069 1080 1088 1069 982 887 996 977 671 848 1046 1527 1381 1149 1000 1107 1281 1790 1942 1918 1890 1902 2122 2041 2067 2522 2138 2052 2040 2099 2155 1824 2136 2412 2551 2287 2759 3043 2301 1956 2191 2071 2849 2786 2052 2001 1578 1354 1386 1280 1002 1192 675 43 54 289 840 862 1017 1185 1444 1616 1792 1894 2024 2099 2139 2653 2527 2002 1996 2056 2298 2366 2202 2282 2274 2215 2184
960 1137 1156 945 810 887 998 1096 1082 1008 1043 972 1010 949 787 1084 1169 1676 1725 1246 1139 1024 1237 1890 1986 1974 1923 1868 2156 2068 1938 2310 2430 1800 2012 1936 1960 2127 2294 2528 2627 2241 2707 2978 2426 2336 1896 1773 1983 2528 2169 1538 1419 1113 1207 1140 1108 1084 397 60 58 307 767 790 829 1679 1246 1377 1519 1739 1772 1810 2131 2278 2407 1975 1952 1952 1995 2282 2299 2294 2274 2222 2238
1158 1198 1230 1048 878 827 951 1169 1102 948 992 1101 1047 945 913 1240 1226 1584 1714 1339 1195 850 1170 1736 1931 1973 1949 1895 2086 2024 2014 2225 2565 2119 1846 2457 1697 2367 2603 2901 2542 2228 2567 2846 2504 2048 1961 2165 1802 2195 2674 1869 1505 1306 1076 1052 1103 762 308 69 19 210 734 636 1102 1008 1082 1208 1438 1636 1522 1564 1827 2208 2208 1783 1828 1865 1868 1958 2022 2069 2110 2288 2208
1256 1240 1288 1170 1047 874 955 1173 1112 929 906 1195 1081 1013 1115 1340 1276 1525 1720 1524 1398 1167 1041 1388 1916 1940 2015 2024 1981 2022 2126 2014 2526 2255 1970 2520 1944 2648 2754 2998 2533 2429 2924 2672 2620 2141 1597 2171 2128 2315 2755 3187 3221 2089 1425 1894 566 850 1934 43 2 7 545 750 788 837 915 1202 1391 1536 1319 1445 1791 2139 1709 1585 1698 1751 1755 1833 2188 1909 1932 2100 2194
1242 1275 1290 1238 1142 1054 951 1202 1110 970 895 1182 1117 962 1164 1324 1331 1478 1616 1573 1510 1383 1142 1062 1635 1919 1982 2077 2021 1905 2091 2116 2565 2289 1980 2837 2177 2637 2698 2952 2837 2559 2919 2906 2704 2273 2253 2099 2495 2800 2455 2368 2257 2152 2409 980 1 74 0 0 0 149 760 582 678 720 817 902 1195 1326 1254 1529 1749 1682 1509 1509 1593 1635 1566 1702 1910 1888 1852 1896 2053
1163 1230 1237 1238 1157 1141 1154 1275 1098 1019 897 1110 1167 1063 1150 1192 1330 1505 1550 1553 1485 1399 1425 1212 1116 1671 1864 2100 2147 1917 1999 2162 2472 2416 1979 2383 2208 2535 2629 2746 2951 2558 2631 2841 2670 2728 2802 2894 2701 2734 2953 2358 2086 2032 1952 283 136 9 11 1 0 0 842 296 502 494 603 691 1026 1072 1179 1475 1540 1313 1297 1371 1451 1328 1367 1605 1754 1845 1787 1806 1822
1075 1163 1207 1162 1121 1146 1217 1367 1130 1069 908 1082 1249 1169 1151 1241 1109 1374 1510 1538 1475 1510 1452 1451 1235 1356 1749 2036 2225 2088 1987 2168 2327 2536 2139 2005 2202 2140 2355 2343 2766 2674 2637 2950 2632 2419 2074 2473 2500 2233 2435 2332 2260 2322 2052 1257 67 243 53 0 0 0 113 0 63 186 0 500 780 797 1069 1259 1303 1119 1167 1265 1157 1026 1251 1366 1497 1648 1637 1736 1741
981 1079 1120 1118 1069 1049 1200 1294 1312 1248 1207 1150 1472 1284 1224 1307 1201 1300 1449 1492 1448 1437 1425 1454 1256 1372 1754 1972 2231 2202 2061 2180 2264 2420 2296 1922 2052 2182 2009 2287 2691 2696 2401 2814 2765 2557 2216 2205 2691 2280 2278 2218 2121 2179 2402 1700 356 17 16 0 0 0 0 0 0 0 0 0 463 158 916 1069 1104 1046 1086 1148 978 954 1104 1172 1283 1388 1546 1702 1614
901 1013 1098 1106 1087 1066 1115 1251 1350 1335 1299 1376 1471 1397 1490 1372 1311 1281 1435 1442 1385 1245 1232 1294 1337 1534 1860 1973 2141 2257 2183 2208 2260 2302 2272 1978 1988 2262 2267 2436 2780 2941 2550 2416 2705 2594 2353 2200 2468 2512 2476 2105 2102 2050 2084 1760 560 1 25 9 0 0 0 0 0 0 0 0 0 12 602 803 928 910 966 1041 1008 1022 1074 1126 1214 1232 1442 1507 1479
772 929 1071 1115 1112 1091 1095 1136 1286 1323 1288 1362 1444 1434 1485 1363 1308 1247 1354 1370 1310 1162 1125 1183 1250 1426 2034 1992 2095 2238 2228 2231 2263 2226 2210 2066 2032 2031 2648 2592 2827 3084 2845 2565 2602 2800 2819 2732 2553 2482 2427 2238 1981 1623 1563 2110 857 870 54 0 0 0 0 0 0 0 0 0 0 0 20 396 649 718 805 896 882 982 1065 1072 1186 1240 1273 1171 1280
616 763 968 1083 1108 1086 1062 1190 1271 1298 1270 1437 1441 1571 1457 1371 1249 1205 1166 1263 1258 1094 1058 1054 1156 1144 1985 2109 2060 2174 2259 2154 2310 2181 2168 2134 2029 1971 2683 2694 2772 2969 3100 2718 2744 2944 3112 3159 3042 2798 2530 2184 1872 1560 1303 1173 1132 708 1154 444 402 540 0 0 0 0 0 0 0 0 0 0 214 364 261 39 381 818 919 1017 1186 1295 1207 1090 1202
642 650 865 965 1045 1068 1076 1191 1286 1359 1214 1466 1462 1525 1431 1383 1263 1182 1126 1113 1116 1125 995 988 1031 1058 1855 2096 2053 2173 2231 2125 2185 2193 2172 2155 2118 2072 2393 2840 2847 2894 3138 3035 2898 2881 3079 3259 3119 2920 2722 2260 1786 1544 1261 1087 954 194 158 6 554 949 16 1 0 0 0 0 0 0 0 0 0 0 0 19 110 613 686 880 1022 1216 1216 1136 1093
647 641 812 914 997 1078 1106 1206 1305 1429 1260 1509 1477 1500 1460 1354 1319 1222 1165 1135 1078 1070 1025 942 956 1040 1515 1953 2027 2153 2220 2105 2085 2064 2049 2067 2260 2237 2321 2797 2932 2933 3190 3019 2958 2969 3111 3059 2988 2896 2774 2275 1890 1461 1084 942 384 5 29 11 2 0 11 148 247 2 0 0 0 0 0 0 0 0 0 6 57 81 136 484 732 876 1092 1030 970
684 678 670 857 925 1048 1064 1204 1290 1458 1355 1529 1537 1489 1462 1386 1289 1246 1176 1145 1175 1112 1080 989 944 950 1070 1752 1973 2100 2133 2132 2049 2016 1976 1954 2111 2278 2450 2619 2992 3013 3139 3011 2942 3033 3081 3091 3030 2664 2559 2367 2154 1721 1128 1016 0 0 0 0 0 0 0 0 0 0 0 0 0 0 0 0 0 0 0 0 9 18 37 32 245 349 764 848 793
729 719 692 770 852 923 1016 1118 1258 1444 1434 1516 1522 1502 1445 1404 1316 1259 1194 1106 1143 1177 1115 1007 963 989 928 1288 1860 1962 2068 2038 2044 2039 1993 1973 2016 2233 2535 2573 2826 3067 3160 3016 2915 2954 3014 3069 3047 2731 2351 2405 2144 1776 2001 1399 900 189 0 0 0 0 0 0 0 0 0 0 0 0 0 0 0 0 0 0 0 0 11 7 48 72 57 208 163
Wind_Speed
7 7 8 10 10 9 9 10 9 8 9 8 8 8 9 10 10 9 9 8 8 9 10 11 11 10 10 10 10 9 8 7 6 6 5 4 5 5 5 5 5 4 4 2 1 1 1 1 2 4 5 4 4 4 5 6 8 9 10 10 10 11 11 8 7 10 10 9 9 8 7 6 7 7 7 9 9 11 12 12 12 9 6 10 14
4 7 8 8 8 6 7 9 9 7 8 8 8 9 10 11 10 10 9 9 9 9 10 10 10 10 9 9 10 9 8 7 6 5 6 6 6 6 6 5 5 5 4 3 3 2 2 1 3 4 5 5 5 5 6 9 10 9 8 10 10 9 10 10 9 9 9 9 8 8 8 7 6 7 7 7 7 10 11 12 12 6 3 12 13
4 4 7 7 4 5 6 10 9 8 8 8 9 10 11 11 11 10 10 10 10 9 9 10 9 9 9 9 9 10 8 7 7 5 5 5 6 6 6 5 5 6 6 5 4 3 3 3 4 4 5 5 5 7 8 9 10 10 9 8 8 8 8 8 9 9 9 9 8 7 7 7 6 6 7 6 7 8 11 11 11 9 7 14 12
3 5 5 4 6 6 9 11 9 9 9 9 11 12 12 12 12 11 11 11 10 10 10 11 10 10 10 9 10 10 8 8 7 7 6 6 6 6 7 6 6 6 6 6 5 4 3 3 4 5 5 5 6 7 9 11 12 11 9 7 7 7 7 9 9 9 9 8 7 2 3 3 2 7 6 6 8 7 8 8 11 11 13 11 10
2 3 4 4 4 5 8 11 10 10 9 10 11 12 12 12 12 12 12 12 11 11 11 11 10 10 10 10 10 11 10 9 7 6 6 6 6 7 7 8 8 7 7 7 5 4 3 4 4 5 5 6 7 8 8 11 12 12 11 9 7 7 8 10 10 10 10 9 4 2 5 5 4 5 6 6 6 7 8 8 7 10 9 9 8
1 2 3 4 4 6 11 10 11 10 10 11 12 12 12 12 12 12 12 11 11 11 11 11 11 10 10 11 10 10 11 9 7 6 5 6 7 8 7 7 8 9 8 7 6 5 5 5 4 5 6 6 7 8 9 10 10 10 8 7 6 7 9 9 9 10 9 6 2 6 6 6 5 5 7 7 4 7 8 6 5 5 7 8 9
3 1 2 3 5 7 9 11 12 11 11 12 11 11 11 11 11 12 12 11 11 11 11 11 11 10 10 9 10 11 10 9 7 5 5 5 6 7 7 7 7 8 7 7 7 6 5 5 3 4 5 6 7 7 8 9 9 7 5 4 4 5 7 8 7 7 4 5 7 7 7 7 8 7 5 5 4 5 6 7 6 6 5 7 9
1 1 2 3 4 7 9 10 11 12 12 12 11 11 11 11 11 11 11 11 11 11 11 10 10 10 9 10 9 10 10 9 9 9 8 7 7 9 8 8 7 6 7 7 7 6 6 8 7 5 5 5 6 6 6 6 6 5 4 3 2 2 4 5 5 5 3 8 9 8 8 9 9 8 4 4 6 4 5 5 5 5 4 7 9
3 3 3 3 5 9 10 10 11 12 12 11 11 11 11 11 11 10 10 10 10 11 11 11 11 11 11 10 10 10 11 12 12 11 10 9 10 9 8 7 7 7 6 6 7 6 5 5 6 5 5 4 4 4 4 4 3 4 3 2 1 3 4 3 4 3 5 8 9 9 10 11 10 9 4 6 8 9 9 5 6 8 6 8 9
4 3 3 4 6 12 10 12 11 12 11 11 11 11 11 10 10 9 9 10 10 10 11 11 12 11 11 11 11 11 11 12 13 12 14 13 11 10 9 7 6 5 5 5 4 4 4 4 4 4 4 3 3 2 2 2 2 3 4 3 2 3 3 3 2 3 6 7 8 10 10 8 11 9 3 3 5 5 6 5 2 2 3 5 8
6 3 3 4 7 11 13 12 12 12 11 11 11 11 10 10 9 9 9 9 9 9 10 11 10 10 10 10 10 9 9 9 8 8 8 8 9 8 8 7 7 5 5 5 4 3 3 1 3 4 3 2 2 2 3 3 3 3 4 4 4 4 4 2 2 5 5 6 7 9 6 3 10 11 3 1 2 5 3 4 3 5 6 10 10
7 4 3 4 10 15 12 12 11 11 11 11 11 11 10 9 9 9 8 8 8 8 9 9 9 9 9 9 8 8 7 7 7 7 7 7 7 7 6 7 7 7 6 5 5 4 4 5 4 2 4 3 3 3 3 4 3 4 4 5 5 5 4 2 5 5 5 5 5 6 7 8 8 6 5 2 2 5 5 4 4 5 6 8 10
6 4 3 4 7 11 12 12 11 11 11 11 11 11 10 10 9 9 8 7 7 7 7 8 8 8 7 7 6 5 5 5 5 5 4 5 5 6 6 6 6 6 6 4 3 3 3 3 3 4 3 3 3 3 3 2 3 2 2 4 5 5 3 1 5 4 4 5 6 6 6 6 4 4 3 2 3 6 6 7 7 7 8 9 10
6 4 3 5 5 11 12 12 12 11 12 11 11 11 10 10 9 8 7 6 6 6 6 6 6 6 5 5 5 5 4 4 3 3 3 3 4 5 6 6 6 6 5 5 3 2 2 3 1 1 1 2 3 3 3 2 1 0 3 4 4 5 4 2 2 4 4 4 5 6 6 5 4 5 6 4 4 5 6 6 7 8 9 10 10
7 5 4 4 4 4 12 13 12 11 11 11 11 10 11 11 9 8 6 5 5 5 5 5 6 6 5 6 6 6 5 5 4 4 4 5 5 5 5 5 5 5 4 3 2 1 1 1 3 2 2 2 4 4 3 1 2 2 2 4 7 5 3 6 5 6 6 6 6 5 5 4 3 4 5 6 6 5 6 7 8 9 9 10 11
8 5 4 3 3 3 4 10 12 12 12 11 10 11 11 11 9 7 6 5 4 4 5 6 7 7 7 7 8 8 8 8 8 7 8 8 8 7 6 6 6 6 6 5 4 3 3 2 2 2 3 4 4 3 2 1 1 4 3 3 5 5 4 4 6 6 6 7 7 7 5 4 5 5 7 7 7 7 7 7 8 9 9 10 10
8 4 3 3 2 2 2 4 7 12 11 11 11 11 12 10 8 7 6 6 6 6 7 8 9 9 8 8 9 10 10 10 10 11 11 11 11 11 11 10 9 8 8 8 8 7 6 5 4 4 4 4 4 4 2 2 1 2 3 3 3 5 5 2 4 5 5 6 7 7 6 6 4 5 7 7 7 7 8 8 8 9 9 9 10
6 5 2 2 2 2 2 3 4 4 5 8 11 12 11 10 8 7 7 8 8 8 9 10 10 10 9 9 10 11 11 12 12 13 13 13 14 13 13 13 12 12 12 12 11 10 9 7 6 5 4 5 5 4 4 2 2 1 5 4 6 6 6 4 3 4 4 4 4 5 5 4 5 6 7 7 7 7 8 8 8 8 8 8 8
4 4 2 1 2 2 2 3 2 3 4 5 6 8 11 9 8 8 8 9 10 10 10 11 11 11 10 11 11 12 13 13 13 13 13 13 13 13 13 13 13 13 13 13 13 12 12 11 9 8 7 6 5 5 5 6 4 3 3 4 6 6 7 3 5 5 4 4 5 4 5 5 5 7 8 8 8 8 8 9 9 9 8 8 7
3 3 2 1 2 2 3 3 3 4 5 6 7 8 9 9 9 9 9 10 11 11 12 13 13 12 12 13 13 15 14 15 13 15 13 12 13 15 13 13 13 12 13 13 13 13 13 12 11 11 10 8 7 6 7 7 6 5 4 4 6 8 6 7 6 5 6 6 6 6 6 7 7 7 8 9 9 9 9 9 10 9 8 7 7
2 2 0 1 2 2 3 4 4 4 5 6 8 9 9 8 9 9 10 11 12 14 15 15 15 15 15 14 14 18 18 18 16 18 13 15 15 14 14 13 13 12 12 13 13 13 12 12 12 11 11 10 9 8 9 9 9 9 8 8 10 9 9 8 8 8 8 8 8 9 10 10 10 10 10 10 10 10 10 10 10 10 10 8 7
3 1 1 1 2 3 3 4 4 4 6 8 10 11 10 9 12 12 13 14 15 17 18 20 17 19 15 15 17 17 17 17 18 15 16 17 16 15 15 13 13 13 13 12 13 13 13 12 12 12 12 11 10 12 10 10 12 12 12 12 10 11 10 10 10 10 10 10 11 12 14 15 14 13 13 12 12 11 11 10 10 10 10 9 8
3 1 2 2 2 3 4 4 4 5 7 9 11 12 11 12 13 14 15 16 19 19 20 18 18 18 17 15 16 16 17 17 18 16 17 16 17 16 15 14 13 13 13 12 12 13 14 14 13 13 13 12 11 12 12 12 13 14 14 12 12 11 11 11 11 11 12 12 12 16 17 17 16 15 15 15 14 14 13 12 11 10 10 9 9
5 2 1 3 2 3 4 5 4 5 8 11 12 12 12 13 15 16 17 19 19 19 18 17 17 17 16 15 15 16 17 17 18 16 15 16 17 16 15 14 14 13 13 14 13 14 14 14 14 12 12 13 13 13 13 13 14 15 14 15 14 12 12 12 12 12 13 13 14 18 18 17 17 16 16 17 17 16 16 14 13 12 11 10 9
3 2 1 2 3 2 4 6 5 6 8 11 12 13 13 14 16 17 17 18 18 18 17 16 16 16 16 16 16 16 16 17 18 15 13 15 16 16 15 14 14 15 13 15 15 16 14 15 15 14 14 15 14 15 14 15 16 16 15 15 15 14 13 13 13 13 13 14 15 19 19 18 18 18 19 19 18 17 17 15 14 13 12 11 10
2 2 3 1 3 3 4 6 6 7 9 11 12 13 13 15 16 16 16 17 17 17 16 15 15 16 16 16 15 15 15 16 15 14 13 13 15 16 15 15 14 16 15 15 16 16 16 17 17 17 15 15 17 17 16 16 18 17 16 16 17 15 15 15 14 14 15 16 17 20 20 19 19 19 19 19 18 17 16 15 15 14 13 12 12
4 2 1 2 2 3 4 5 7 8 9 11 12 13 14 15 15 14 13 15 16 15 15 15 15 15 15 14 13 14 15 15 15 13 12 13 15 15 15 15 15 16 16 14 16 17 15 16 17 16 15 15 17 17 17 17 18 18 17 17 17 16 16 15 15 15 16 16 18 22 20 20 20 20 19 19 18 17 16 15 15 14 14 13 13
3 3 1 1 2 3 4 4 7 8 10 12 12 13 14 14 14 13 13 14 14 15 15 15 14 14 14 13 12 13 14 14 15 13 13 13 14 14 15 14 14 15 15 14 14 15 15 15 15 14 15 16 15 14 16 17 18 17 17 17 17 16 16 15 14 15 15 16 17 20 21 21 20 20 19 18 17 17 16 16 15 15 14 13 13
5 4 1 1 3 3 4 5 6 8 11 11 12 13 13 14 14 13 13 14 13 14 15 14 14 14 13 12 12 13 13 13 14 13 11 14 13 12 13 13 12 13 13 14 13 14 15 15 14 14 15 16 15 14 13 14 16 17 18 16 16 16 15 14 14 14 15 16 16 19 21 21 20 19 19 18 17 17 17 17 16 15 14 14 14
5 4 3 1 3 3 3 4 6 7 10 11 13 13 13 13 14 14 13 13 13 14 13 13 14 13 13 12 13 13 13 13 14 13 12 13 11 12 12 11 11 12 12 12 12 10 12 14 13 12 14 15 15 14 11 11 12 15 15 15 15 16 15 12 12 14 15 15 16 18 21 20 20 19 19 18 17 17 17 17 17 16 15 16 16
5 4 3 0 3 3 3 4 6 8 10 11 12 12 12 13 13 13 13 13 13 13 13 13 13 13 13 12 14 14 13 12 13 12 12 11 10 11 11 9 10 11 11 11 9 9 10 10 10 11 12 12 13 13 10 10 9 8 10 14 14 13 12 11 12 12 13 15 15 16 17 20 20 19 18 18 18 18 17 17 17 17 16 16 16
6 4 2 1 1 3 3 4 5 7 10 11 12 12 12 13 13 13 13 14 13 13 13 12 13 13 13 12 13 14 12 13 12 11 10 10 10 10 9 9 10 10 9 9 8 7 7 7 8 8 9 8 10 10 10 10 9 6 8 10 11 12 11 11 12 13 13 14 15 15 15 16 20 20 18 18 17 17 17 17 16 16 17 16 17
1 3 2 2 1 2 3 4 5 7 9 11 11 12 12 13 13 12 13 13 13 12 12 11 12 12 12 12 12 12 10 11 11 11 10 10 8 8 9 10 10 9 8 7 6 5 3 3 5 6 6 6 6 8 8 8 8 8 5 nan 11 11 11 11 11 12 14 14 15 15 15 15 16 20 20 19 18 17 17 16 16 15 16 16 17
1 1 1 1 2 4 5 6 5 7 9 11 12 12 12 12 12 12 12 12 12 11 11 10 10 10 10 10 11 10 9 9 9 9 8 8 7 8 10 10 10 9 8 6 5 4 2 2 4 4 6 4 4 6 5 7 10 8 2 9 nan 12 11 12 11 12 13 14 15 15 16 16 16 14 15 19 18 18 17 16 16 15 15 16 17
3 2 2 0 2 3 6 7 6 8 9 10 11 12 11 11 11 11 11 11 10 10 10 9 8 9 8 9 10 9 7 8 8 7 8 8 8 9 10 11 10 9 8 7 5 5 2 2 3 3 4 4 4 5 5 7 10 10 3 6 nan 11 10 11 11 12 13 13 12 15 15 15 15 15 15 13 17 17 16 16 16 15 15 15 17
1 2 1 1 2 3 5 6 5 8 9 10 11 12 11 10 11 10 10 10 9 9 8 8 7 6 7 8 9 8 7 7 7 7 7 8 9 9 11 11 10 9 9 7 6 7 5 4 5 3 4 6 7 8 6 8 11 10 6 nan nan 11 11 11 12 12 12 11 14 15 14 14 14 15 15 14 14 15 17 17 17 16 15 16 17
2 2 2 1 3 2 4 4 4 7 9 11 10 12 12 10 10 9 8 8 8 9 7 7 5 5 5 6 8 8 8 8 7 7 6 7 8 9 11 11 11 10 9 9 9 9 9 7 7 7 7 9 10 11 11 10 11 10 7 nan nan 11 10 12 12 12 11 13 13 14 14 14 15 17 15 15 16 16 16 19 18 17 17 17 17
3 2 2 1 2 3 5 6 6 7 10 12 11 11 12 10 10 9 8 7 9 9 7 6 5 5 5 6 7 7 8 8 7 7 6 8 9 10 11 11 11 10 10 10 11 11 11 9 9 10 10 10 12 11 12 12 10 10 5 nan nan 8 10 11 10 10 10 12 13 14 15 14 15 16 15 16 17 17 16 18 19 19 18 18 17
4 3 3 4 4 5 7 8 7 7 9 13 13 12 13 12 11 9 8 7 9 9 6 5 5 4 5 6 6 7 8 8 8 7 7 8 9 10 10 11 10 10 10 10 10 11 11 10 10 11 11 12 12 12 13 10 10 10 8 nan nan 10 10 10 11 10 12 13 12 14 13 15 15 15 16 17 17 17 16 15 14 13 14 18 18
6 5 3 3 4 4 8 10 8 8 11 13 14 12 13 11 9 10 8 7 8 8 6 5 5 5 5 6 7 6 7 7 8 8 7 8 9 10 9 10 10 9 9 10 10 11 11 10 10 9 10 11 11 10 9 9 8 8 9 nan nan nan 12 13 12 13 13 11 12 12 14 12 13 14 15 16 16 16 15 15 14 12 11 13 16
6 6 4 2 3 4 6 7 8 9 10 12 13 11 11 11 11 8 7 7 7 8 7 5 4 6 5 5 6 6 6 7 8 7 7 8 9 9 8 9 8 9 9 10 10 11 10 10 9 8 9 9 11 9 8 8 nan nan nan nan nan 10 15 14 14 14 13 12 11 11 12 11 12 14 15 14 14 14 14 14 13 11 10 9 11
3 6 5 2 3 4 6 9 10 9 10 12 13 13 13 11 10 9 9 8 7 6 7 6 5 5 5 5 5 5 6 7 7 8 8 8 8 9 9 9 8 8 8 8 8 9 7 7 7 7 10 10 11 11 9 7 8 nan nan nan nan nan 11 14 14 13 12 13 11 9 9 9 11 12 12 13 13 13 12 12 11 11 10 9 8
3 4 5 4 3 4 7 9 10 10 11 12 14 14 15 14 12 11 7 9 9 7 7 6 5 3 4 5 5 5 6 7 7 8 8 8 8 9 10 8 8 7 6 7 8 8 7 8 8 9 11 10 10 10 10 9 nan 11 nan nan nan nan 13 nan nan 13 nan 12 9 9 9 9 10 10 12 12 13 12 12 12 11 10 9 8 8
2 4 5 4 4 5 6 8 9 10 12 12 13 15 15 15 14 10 9 6 6 7 6 7 5 4 3 4 5 4 6 7 7 7 7 7 8 9 8 8 8 7 7 7 8 8 7 8 8 9 9 10 11 11 11 12 10 nan nan nan nan nan nan nan nan nan nan nan 12 12 10 10 10 9 9 12 13 12 12 12 12 11 10 9 9
2 2 3 5 6 4 5 7 9 10 12 12 12 15 15 15 14 13 11 9 9 6 6 7 6 4 3 3 5 5 5 6 7 8 7 8 7 7 7 8 8 8 7 7 7 9 8 8 9 8 11 12 13 12 12 13 13 nan nan nan nan nan nan nan nan nan nan nan nan nan 12 11 11 11 11 12 10 11 11 11 11 11 11 11 10
3 2 3 4 7 7 7 8 10 10 11 10 11 12 11 9 9 8 6 7 6 6 3 3 3 2 3 3 3 4 5 6 7 8 8 8 8 7 6 6 7 7 8 8 7 7 8 8 9 9 12 13 13 12 13 12 14 14 nan nan nan nan nan nan nan nan nan nan nan nan nan 14 12 12 12 11 12 13 12 12 11 13 13 12 12
3 3 5 5 7 8 8 7 8 9 10 10 9 11 11 10 7 7 7 6 5 5 4 4 3 3 4 2 2 3 5 7 7 7 8 8 8 7 7 7 7 8 8 7 7 8 8 9 8 8 12 13 11 12 13 14 10 13 13 14 12 12 nan nan nan nan nan nan nan nan nan nan 13 14 14 nan 14 14 13 12 13 14 14 13 13
4 5 5 5 7 9 10 8 8 8 9 9 8 9 9 10 10 10 10 8 3 3 3 4 5 5 4 2 3 3 5 7 6 7 7 7 8 9 8 8 9 9 8 9 10 9 8 8 9 10 11 12 13 13 13 12 12 13 11 nan 12 10 nan nan nan nan nan nan nan nan nan nan nan nan nan nan 15 15 14 13 14 14 14 13 13
5 4 5 6 6 8 10 9 8 8 8 7 7 8 10 10 10 10 9 7 4 4 4 4 5 5 3 3 2 3 5 6 6 6 6 7 8 9 9 9 10 10 10 10 9 8 9 10 9 9 10 11 12 12 10 13 12 nan nan nan nan nan nan 10 8 nan nan nan nan nan nan nan nan nan nan nan nan nan 14 15 15 15 14 14 14
6 5 7 9 8 8 9 10 8 7 7 6 7 7 8 10 9 8 5 5 5 5 5 3 3 4 2 2 2 3 5 5 5 5 6 7 8 9 9 11 12 12 11 11 10 10 10 10 11 11 11 11 11 12 12 11 nan nan nan nan nan nan nan nan nan nan nan nan nan nan nan nan nan nan nan nan nan nan nan nan 15 14 15 14 14
7 7 8 9 9 8 8 9 8 7 7 6 6 6 7 8 7 5 2 2 3 3 4 3 2 3 2 2 3 4 3 4 3 5 7 7 8 9 10 12 12 12 12 12 12 12 11 11 11 11 12 12 11 11 10 10 11 11 nan nan nan nan nan nan nan nan nan nan nan nan nan nan nan nan nan nan nan nan nan nan nan nan nan 16 15
Wind_Direction
112 111 102 49 26 356 320 318 318 308 301 298 294 289 282 276 271 270 269 269 272 277 284 286 290 290 291 293 294 298 301 302 305 316 321 333 343 342 348 352 349 346 338 322 266 255 263 264 263 258 250 247 254 268 274 275 273 283 290 296 298 308 314 319 316 304 301 298 295 294 290 296 305 295 278 285 283 274 276 285 283 278 281 296 306
83 116 103 89 66 347 322 329 327 316 305 301 300 292 288 288 289 285 280 280 279 280 286 289 292 295 298 299 302 301 303 308 313 320 330 346 345 341 347 351 357 350 350 351 353 347 337 321 281 271 262 259 267 277 282 290 300 297 296 305 305 312 319 319 319 319 314 307 298 292 290 290 291 297 293 280 280 284 287 279 281 278 294 309 310
133 124 111 95 22 354 350 343 331 322 313 310 305 301 299 299 297 293 293 290 287 289 295 296 299 298 295 302 306 303 310 315 317 324 340 342 338 340 346 4 3 358 2 4 359 352 345 316 286 273 270 267 270 280 293 308 308 308 307 312 312 318 322 325 328 326 319 312 304 295 284 287 286 291 293 283 266 272 281 283 288 289 307 307 315
122 125 114 72 21 17 356 346 334 329 321 314 313 310 309 306 304 304 302 303 305 312 307 306 306 303 305 307 308 311 316 319 323 333 343 343 338 344 352 5 7 8 12 8 6 355 335 304 286 282 282 280 278 287 306 315 318 314 318 328 332 347 347 349 345 336 325 318 302 256 108 97 321 307 315 292 270 277 276 278 291 302 308 307 312
122 127 95 87 48 34 19 346 341 332 322 318 317 315 311 309 308 308 310 310 312 311 309 307 307 311 313 318 320 319 321 319 326 333 340 358 357 356 358 4 10 11 18 13 3 348 337 305 292 293 293 292 292 300 314 320 318 327 338 340 351 4 6 1 351 343 335 326 321 79 82 78 62 318 320 304 278 284 287 281 290 300 299 312 317
65 101 103 101 65 41 25 348 341 332 325 325 324 319 314 312 312 312 311 313 313 311 310 310 308 315 319 322 320 320 319 324 328 338 7 15 9 6 3 4 5 10 10 8 0 352 335 317 306 306 303 303 305 312 324 326 332 336 336 347 2 12 10 4 359 351 346 343 24 77 80 81 76 35 317 305 329 307 304 296 295 292 311 316 309
337 96 84 86 87 48 21 349 339 334 332 331 326 319 316 313 314 315 316 318 314 311 309 309 312 318 320 320 320 319 312 313 317 347 13 24 28 30 15 10 12 8 4 5 358 350 335 313 321 318 312 314 318 319 324 329 334 334 349 356 5 15 11 2 358 351 346 65 77 83 91 92 90 80 337 328 310 296 291 314 330 321 337 331 314
311 53 55 69 82 25 15 353 341 338 338 335 326 321 317 315 318 319 320 319 316 312 311 315 319 321 319 317 325 312 315 321 331 355 11 22 36 34 20 11 5 358 360 2 353 355 352 334 339 345 313 316 322 331 330 334 334 342 356 3 351 9 28 2 349 346 2 80 88 93 98 96 97 96 350 326 319 311 326 329 334 316 336 315 312
327 353 26 39 44 13 7 351 342 341 339 334 327 322 318 322 324 322 323 320 317 318 320 324 327 327 328 328 327 328 330 332 340 345 343 10 29 21 17 6 359 354 352 358 359 352 348 348 339 332 324 314 312 325 333 330 334 333 327 308 316 346 6 1 355 354 67 81 86 94 98 99 102 105 40 346 342 343 338 342 321 329 343 315 311
325 353 14 41 40 10 5 344 344 339 340 333 327 324 324 329 328 327 325 324 322 324 327 328 329 332 334 334 335 335 333 335 337 347 351 357 359 10 8 359 355 354 356 0 2 2 357 350 350 345 338 322 305 309 328 333 335 318 319 326 345 344 353 340 337 50 63 73 75 79 83 97 109 111 90 328 318 341 327 331 12 8 2 288 308
323 352 15 26 18 6 350 339 341 341 340 332 329 328 331 332 332 332 328 324 324 328 329 327 329 335 337 337 337 333 330 328 329 334 344 348 349 350 352 348 345 351 353 358 358 347 347 353 27 0 359 341 311 316 331 359 355 332 325 336 350 356 342 302 143 96 85 79 81 82 73 97 108 111 71 5 323 275 276 312 295 297 321 330 310
324 339 13 34 360 359 339 339 339 342 340 335 334 334 336 336 336 337 330 324 325 330 328 327 332 339 342 341 338 337 335 332 328 333 335 344 348 351 347 345 343 346 354 351 347 338 357 339 19 17 5 343 318 319 335 343 341 331 332 344 0 359 344 255 119 115 102 99 102 97 97 94 102 121 124 71 320 294 303 317 324 314 321 304 309
322 340 5 28 14 350 338 336 341 345 342 339 339 339 338 340 340 339 333 329 332 335 331 333 340 347 349 349 352 350 351 344 336 331 342 342 351 355 354 350 343 338 339 337 331 335 332 350 336 353 2 329 320 322 328 315 307 324 335 345 349 351 345 249 107 113 113 116 116 113 104 102 89 7 59 24 332 325 330 320 330 317 307 306 311
318 340 4 14 29 347 337 338 344 346 344 345 345 341 342 343 343 343 343 339 344 341 340 343 355 3 6 16 27 32 25 19 9 16 9 4 7 7 4 0 358 346 339 335 331 327 327 307 321 228 338 339 350 350 333 308 295 300 0 345 5 10 349 52 101 99 95 104 110 113 112 107 88 8 355 331 326 312 317 316 311 311 309 308 313
320 336 355 20 23 10 340 341 346 347 349 351 348 345 346 347 348 355 355 358 0 357 360 13 27 29 35 47 60 63 62 63 65 71 64 57 48 33 28 22 22 23 17 9 7 5 333 334 304 19 22 24 19 6 340 302 213 169 130 22 11 18 15 96 93 92 89 95 108 111 115 104 350 341 328 329 319 309 311 311 305 306 309 313 315
317 326 351 15 18 38 9 349 347 349 352 355 353 351 352 352 358 11 16 21 27 31 42 50 51 50 52 65 74 77 79 76 74 74 76 74 71 66 60 55 49 49 51 57 63 63 64 51 19 10 32 36 39 32 9 286 157 134 135 69 18 14 8 86 89 89 91 89 93 99 96 84 341 330 317 314 314 319 311 304 305 305 307 308 311
320 323 342 358 23 59 47 20 4 350 356 360 357 356 360 2 15 32 42 46 53 59 65 64 62 60 63 71 77 81 82 81 79 78 78 78 75 72 70 69 69 66 67 70 70 70 69 69 63 39 25 35 48 57 46 22 83 100 119 96 34 1 356 37 80 79 79 80 88 91 83 78 12 341 321 312 309 311 313 317 312 309 309 313 313
320 326 334 358 47 79 65 53 18 27 52 15 3 4 9 17 34 52 56 62 65 67 70 69 71 68 71 76 81 84 86 86 85 84 83 81 78 76 74 72 72 71 70 72 73 74 75 76 76 72 59 43 42 57 81 75 37 94 78 64 32 360 358 356 77 71 65 65 72 82 88 17 356 344 331 324 322 319 319 323 325 326 324 324 324
319 326 316 337 80 94 65 74 73 82 70 83 73 37 19 33 51 58 61 66 69 68 69 73 75 80 81 87 90 90 92 90 87 85 81 81 82 79 75 73 71 71 73 75 76 76 78 81 80 77 71 65 48 47 64 81 86 49 79 61 22 14 2 46 79 73 72 71 70 74 69 355 352 331 325 322 321 321 321 325 329 332 334 338 343
324 319 321 105 109 94 101 96 90 94 99 93 84 80 49 46 62 61 64 69 68 69 69 76 80 84 86 88 90 97 93 94 80 88 77 73 76 83 75 74 70 70 72 75 75 74 74 78 81 79 75 73 64 46 47 69 70 78 91 62 35 26 71 79 80 71 63 61 71 67 49 13 355 342 328 323 319 317 319 319 319 319 320 327 342
343 341 342 110 100 93 95 113 100 98 98 94 96 95 83 62 79 67 65 70 75 73 76 77 84 88 93 89 97 108 106 102 96 95 81 92 76 70 69 67 66 66 69 72 73 75 72 69 74 74 72 69 65 49 38 46 58 68 57 37 27 63 63 68 64 63 60 60 55 59 35 23 10 0 348 340 333 327 324 320 316 313 312 318 329
358 13 83 99 118 112 96 100 111 98 101 104 107 107 108 95 116 109 109 99 91 86 93 103 98 106 88 99 104 101 101 100 94 88 94 88 83 70 69 65 66 67 68 68 70 72 73 69 67 69 71 69 67 85 71 46 45 46 48 42 53 55 56 51 54 54 55 55 54 45 30 24 18 12 5 0 356 349 342 336 326 318 314 315 318
357 40 110 71 122 125 113 100 104 110 102 109 110 113 117 123 117 116 115 103 103 103 106 107 110 105 106 102 99 97 96 94 95 91 92 81 83 70 67 66 67 68 70 69 71 72 75 73 69 68 68 69 80 77 76 75 72 49 50 72 62 53 53 50 52 50 46 48 53 38 30 27 24 20 17 16 12 7 359 353 348 337 330 327 324
353 18 58 128 109 113 106 105 101 106 109 115 116 121 125 119 115 115 116 113 111 107 108 109 106 106 101 100 98 97 94 91 84 70 74 87 83 69 65 63 62 65 65 76 71 71 71 70 70 69 74 83 77 75 74 73 73 76 73 74 71 64 51 51 52 52 49 45 50 32 35 33 29 26 24 23 20 16 11 7 2 360 355 347 343
359 344 110 104 90 115 128 116 114 112 115 119 117 122 122 119 116 115 115 113 111 106 106 107 104 104 101 100 100 99 95 92 95 93 85 85 87 86 84 85 85 80 74 86 84 82 83 84 85 82 81 82 81 76 73 75 78 73 72 73 74 72 59 57 58 56 53 53 52 32 33 35 33 30 28 27 24 22 19 15 13 14 10 5 1
357 17 38 75 82 121 129 124 118 113 114 119 117 121 120 115 115 114 115 114 110 106 105 104 102 100 102 102 102 100 97 94 95 94 83 83 82 81 81 82 81 80 80 78 77 79 79 77 76 77 79 80 80 78 74 74 72 76 78 76 74 71 61 58 58 57 57 56 53 32 33 33 35 35 32 30 28 25 24 22 21 21 20 17 14
12 20 47 97 97 133 133 125 122 118 116 125 127 126 120 118 117 114 113 111 111 108 106 106 102 101 102 102 99 96 94 91 90 90 82 79 75 78 78 79 81 81 81 74 75 80 78 76 75 77 80 77 75 80 81 78 76 77 77 75 75 73 65 60 60 59 59 60 56 35 36 35 35 37 37 34 31 30 29 28 27 26 24 23 21
6 355 26 88 98 101 130 121 128 123 129 128 129 127 126 122 117 116 114 112 110 108 108 106 103 99 102 99 98 92 89 87 86 85 80 75 73 76 76 75 73 77 80 77 77 82 81 81 82 88 89 86 79 72 77 81 81 76 72 70 70 68 66 65 62 62 59 58 64 45 41 38 38 39 40 37 35 35 34 35 34 32 27 25 26
359 359 335 62 76 122 133 121 131 121 133 133 131 132 130 125 122 121 117 113 110 108 106 108 103 99 101 98 97 88 87 86 85 81 75 68 69 73 70 67 70 69 76 78 78 80 88 88 85 84 88 88 86 82 68 72 77 70 64 61 61 60 60 62 62 60 63 61 63 54 42 42 42 40 42 41 39 37 38 38 37 35 29 25 26
8 345 337 91 108 129 118 120 125 126 135 138 139 136 131 126 121 122 119 114 111 107 111 107 103 99 98 97 88 85 81 79 80 78 66 66 63 65 68 70 65 69 73 72 77 83 85 92 93 83 88 93 94 87 81 68 50 69 62 54 46 49 54 51 54 56 60 60 61 62 42 44 45 43 41 42 40 40 38 39 39 37 34 29 29
353 356 344 179 121 132 125 132 134 137 144 141 142 136 133 127 123 123 123 116 110 111 111 106 103 98 93 90 86 85 84 81 74 68 66 62 61 59 62 68 66 69 72 72 77 75 73 75 78 77 81 83 87 92 93 89 76 54 65 44 40 43 45 40 38 49 55 55 58 65 57 43 45 44 43 40 40 39 40 38 40 39 38 34 34
359 358 350 250 120 105 112 144 135 143 143 143 144 139 132 128 124 125 121 114 115 113 109 106 99 96 93 89 87 83 82 75 66 66 61 61 60 59 63 63 68 70 72 74 78 76 70 74 86 84 83 84 93 98 93 92 90 57 50 31 41 31 33 37 31 35 43 50 53 58 61 54 43 41 39 36 38 40 42 40 39 39 41 39 40
5 348 333 309 13 102 132 148 143 148 145 145 145 140 137 133 127 125 121 116 115 113 108 99 93 92 92 88 86 87 80 64 66 61 62 61 60 60 65 66 65 66 71 74 77 79 76 84 92 93 95 91 86 94 94 86 80 75 26 nan 30 28 26 34 31 34 36 41 47 50 51 52 51 37 34 31 32 37 40 40 39 38 39 38 40
257 207 314 343 193 162 164 166 148 146 148 151 150 147 138 137 132 128 122 117 117 112 106 99 90 90 88 86 84 86 87 74 63 67 63 62 60 58 59 61 64 67 69 79 77 91 82 101 84 100 85 84 95 93 94 97 92 89 10 32 nan 30 26 35 33 37 36 40 42 47 46 41 39 43 42 31 32 36 38 40 40 39 38 37 39
203 198 10 35 196 172 175 168 152 150 156 155 149 146 146 140 136 130 125 117 116 110 105 104 96 89 88 85 85 88 92 85 73 61 62 56 51 55 56 57 56 66 70 74 75 93 85 76 77 84 106 114 91 79 82 90 88 98 65 27 nan 30 32 37 39 40 41 42 43 48 47 39 35 40 41 43 39 41 43 43 44 43 41 42 42
258 169 239 200 170 179 182 171 156 152 153 164 154 150 150 145 142 134 127 118 114 114 115 110 102 96 87 83 87 89 92 89 78 68 56 58 52 51 56 58 57 61 66 71 77 76 85 80 82 71 93 96 95 87 73 85 87 93 89 nan nan 28 32 38 41 45 45 44 48 50 44 43 43 42 41 43 48 50 44 46 48 50 48 49 50
257 188 217 194 168 189 185 180 151 151 158 169 159 158 162 153 147 136 125 121 119 118 128 119 117 99 85 81 87 90 95 92 81 76 61 65 60 53 56 55 58 61 67 67 69 70 75 80 93 92 79 83 87 86 89 84 88 89 96 nan nan 29 36 40 43 44 42 44 52 52 48 47 49 47 47 48 50 53 51 52 51 54 56 55 57
255 211 203 184 159 183 182 185 171 156 165 174 166 164 165 164 157 148 142 125 121 119 135 124 115 107 89 81 87 91 90 93 89 83 74 69 66 59 58 57 59 64 70 72 71 78 76 74 83 93 79 78 83 80 80 76 73 82 78 nan nan 31 38 40 47 45 44 46 52 53 51 52 52 55 52 55 56 55 59 58 53 56 60 62 62
254 230 205 182 173 173 184 191 182 162 169 180 176 174 174 170 165 158 151 137 128 120 143 127 119 111 90 80 84 87 83 86 87 80 70 69 65 64 57 63 64 68 72 77 76 76 77 81 77 81 81 74 65 61 57 61 68 71 68 nan nan 28 39 50 49 47 51 48 49 55 57 56 56 55 51 53 54 55 56 60 62 64 65 66 66
273 235 226 189 174 164 178 194 186 172 177 182 184 180 179 173 165 162 159 148 136 122 134 125 121 104 86 79 82 82 83 79 79 76 69 67 63 65 61 65 68 69 68 66 70 70 68 75 75 68 70 78 80 68 58 52 52 57 61 nan nan nan 43 49 53 56 59 55 56 63 60 60 57 56 52 50 47 50 49 51 54 55 61 68 70
295 259 245 194 175 158 178 193 190 182 178 180 179 180 179 175 172 159 152 152 145 128 126 136 115 105 93 86 82 81 75 67 73 66 58 65 62 67 66 68 68 67 63 61 63 65 70 67 66 69 58 63 77 78 62 39 nan nan nan nan nan 56 44 50 53 57 61 59 59 60 67 58 55 52 50 44 44 45 44 44 44 43 49 57 71
316 270 269 242 187 173 168 191 193 183 177 175 177 176 177 175 177 167 171 161 149 133 125 142 124 117 104 93 90 84 65 60 61 60 53 57 58 62 62 59 64 67 74 76 75 76 76 75 66 70 71 52 60 61 54 40 52 nan nan nan nan nan 54 51 50 64 66 62 53 59 67 58 52 46 43 39 41 41 43 43 40 35 36 40 50
331 268 260 255 223 184 174 190 193 188 183 182 181 177 179 180 180 176 171 167 151 144 137 158 156 134 113 102 94 81 61 63 57 54 50 52 52 50 56 58 59 66 71 72 75 80 74 60 55 50 60 64 55 53 45 39 nan 41 nan nan nan nan 80 nan nan 52 nan 63 54 47 44 43 44 38 33 32 33 35 40 40 36 32 29 27 30
272 224 252 284 230 201 185 192 198 195 190 188 185 182 183 183 182 181 175 167 145 154 154 166 184 165 119 112 110 85 64 58 55 56 55 49 45 46 51 53 56 64 57 59 71 76 72 66 59 58 48 49 51 54 42 42 36 nan nan nan nan nan nan nan nan nan nan nan 41 39 35 29 31 31 25 30 28 26 37 37 33 29 27 25 22
283 225 251 264 223 244 212 204 207 203 197 198 195 193 193 190 186 185 181 179 176 175 182 151 177 169 158 125 93 90 68 62 56 52 49 47 44 46 43 48 50 60 63 62 68 71 68 63 54 53 49 39 41 46 51 41 46 nan nan nan nan nan nan nan nan nan nan nan nan nan 33 23 23 23 23 34 28 23 30 34 28 28 27 23 22
311 222 219 250 248 241 236 221 211 209 206 207 206 199 190 186 184 184 173 165 166 178 151 100 150 143 100 122 108 82 73 71 63 54 47 46 42 41 41 39 50 53 59 63 65 72 71 66 60 49 50 47 33 33 50 50 45 47 nan nan nan nan nan nan nan nan nan nan nan nan nan 26 20 21 27 28 27 28 25 26 20 24 22 21 20
322 244 218 234 259 260 259 252 230 218 214 210 211 198 189 174 166 171 178 187 190 160 146 127 127 155 177 136 114 98 72 62 66 56 48 41 41 39 34 31 37 44 53 58 59 56 56 56 53 47 50 47 38 38 44 52 55 61 51 55 56 57 nan nan nan nan nan nan nan nan nan nan 23 22 27 nan 23 24 25 18 19 21 17 16 15
288 250 236 238 267 277 279 274 244 236 218 213 207 196 188 179 177 180 185 189 177 120 106 123 166 186 180 156 157 105 78 73 63 58 46 37 35 40 34 28 29 33 33 40 45 48 44 51 42 38 46 47 41 41 49 49 35 58 59 nan 61 57 nan nan nan nan nan nan nan nan nan nan nan nan nan nan 20 21 17 20 24 22 17 15 14
288 261 244 245 254 269 284 280 271 257 235 229 210 195 191 190 187 188 188 177 150 128 141 156 164 186 185 170 127 89 83 80 72 51 43 32 30 36 34 29 28 29 28 34 41 35 30 30 33 31 34 44 43 49 41 46 44 nan nan nan nan nan nan 62 48 nan nan nan nan nan nan nan nan nan nan nan nan nan 22 24 29 23 18 19 16
299 260 245 245 248 254 281 296 289 261 249 243 221 207 203 203 197 190 181 171 155 161 170 156 146 182 166 106 92 84 82 82 75 57 37 28 25 30 31 27 28 26 26 29 31 34 30 24 22 21 26 30 42 42 42 43 nan nan nan nan nan nan nan nan nan nan nan nan nan nan nan nan nan nan nan nan nan nan nan nan 29 25 24 23 21
296 283 261 258 259 267 286 306 307 275 264 262 244 227 214 212 206 200 162 132 153 182 178 156 158 136 116 93 69 71 74 59 47 45 34 22 19 24 28 29 28 27 26 26 27 29 26 20 21 15 14 14 20 35 45 44 38 36 nan nan nan nan nan nan nan nan nan nan nan nan nan nan nan nan nan nan nan nan nan nan nan nan nan 25 21